Terminal Aerodrome Forecast
Issued by NWS

Home | Current Version | Previous Version | Text Only | Print | Product List | Glossary On
Versions: 1 2 3 4 5 6 7 8 9 10 11 12 13 14 15
000
FTUS46 KSTO 231700
TAFSMF
TAF
KSMF 231720Z 2318/2418 34008KT P6SM SCT200
     FM240200 20006KT P6SM BKN100
     FM240800 15006KT P6SM BKN150=

USA.gov is the U.S. government's official web portal to all federal, state and local government web resources and services.